Location: Chena
(64.8152°N, 147.9227°W)
Time: 13:08:47
(UTC+00:00)

N. Korean satellite - Pass Details

Date: 29 January 2021
Orbit: 451 x 503 km, 97.2° (Epoch: 28 February)

Event Time Altitude Azimuth Distance (km) Brightness Sun altitude
Rises 16:58:32 0° 16° (NNE) 2,528 10.2 -10.5°
Reaches altitude 10° 17:00:44 10° 6° (N) 1,638 9.1 -10.2°
Maximum altitude 17:03:52 31° 303° (WNW) 841 7.2 -9.9°
Drops below altitude 10° 17:06:57 10° 240° (WSW) 1,608 8.8 -9.6°
Sets 17:09:06 0° 230° (SW) 2,473 9.9 -9.4°
